Torna al catalogo

STARLINK-33960

AttivoComunicazioniVLEO
NORAD 63966·PAYLOAD·🇺🇸 United States

Lanciato May 13, 2025 da Cape Canaveral Space Force Station

Loading…

Prossimi Passaggi (prossime 24 ore)

TLE

AggiornatoSource: CelesTrak SupGP

Epoca: Sep 14, 2026, 20:48 UTC

1 63966C 25099Q   26257.86715278  .00012750  00000+0  46177-3 0  2570
2 63966  43.0004 187.6063 0001353 264.9831   9.8597 15.27574816    14

Traccia STARLINK-33960 in tempo reale con AllMySat

Download on the App Store